Location: Pic du Midi - T1M
(42.9366°N, 0.1426°E)
Time: 00:08:57
(UTC+01:00)

X-37B - Pass Details

Date: 18 June 2021
Orbit: 383 x 392 km, 45.0° (Epoch: 01 July)

Event Time Altitude Azimuth Distance (km) Brightness Sun altitude
Exits shadow 03:20:32 14° 285° (WNW) 1,180 2.8 -16.2°
Maximum altitude 03:23:05 55° 2° (N) 463 1.2 -16.0°
Drops below altitude 10° 03:26:12 10° 82° (E) 1,401 4.0 -15.7°
Sets 03:28:17 0° 87° (E) 2,256 5.0 -15.5°
